Paris Le Bourget, France

8:36 PM CEST on August 29, 2016 (GMT +0200)
Le Bourget

Weather History for LFPB - April, 2013

Change the Weather History Date:

Wednesday, April 17, 2013

  Actual Average Record
Temperature  
Mean Temperature 66 °F -  
Max Temperature 77 °F 63 °F 77 °F (2003)
Min Temperature 55 °F 46 °F 32 °F (2008)
Cooling Degree Days 1    
Growing Degree Days 16 (Base 50)    
Moisture  
Dew Point 47 °F    
Average Humidity 52    
Maximum Humidity 77    
Minimum Humidity 29    
Precipitation  
Precipitation 0.00 in 0.07 in - ()
Sea Level Pressure  
Sea Level Pressure 30.09 in    
Wind  
Wind Speed 7 mph ()    
Max Wind Speed 15 mph    
Max Gust Speed -    
Visibility 6.2 miles    
Events      
Averages and records for this station are not official NWS values.
T = Trace of Precipitation, MM = Missing Value Source: Averaged Metar Reports

Daily Weather History Graph

Daily Weather History Graph

Search for Another Location

Airport or City:

Trip Planner

Search our weather history database for the weather conditions in past years. The results will help you decide how hot, cold, wet, or windy it might be!

Date:

Astronomy

Apr. 17, 2013 Rise Set
Actual Time 6:55 AM CEST 8:45 PM CEST
Civil Twilight 6:21 AM CEST 9:19 PM CEST
Nautical Twilight 5:40 AM CEST 10:00 PM CEST
Astronomical Twilight 4:54 AM CEST 10:46 PM CEST
Moon 11:43 AM CEST (4/17) 2:24 AM CEST (4/17)
Length of Visible Light 14h 57m
Length of Day
13h 50m
Waxing Crescent, 40% of the Moon is Illuminated
Apr 17
Waxing Crescent
Apr 18
First Quarter
Apr 25
Full
May 2
Last Quarter
May 10
New

Hourly Weather History & Observations

Time (CEST) Temp. Dew Point Humidity Pressure Visibility Wind Dir Wind Speed Gust Speed Precip Events Conditions
12:00 AM 60.8 °F 48.2 °F 63% 30.18 in 6.2 mi WSW 8.1 mph - N/A   Unknown
12:30 AM 60.8 °F 48.2 °F 63% 30.21 in 6.2 mi SW 4.6 mph - N/A   Unknown
1:00 AM 60.8 °F 46.4 °F 59% 30.21 in 6.2 mi WSW 6.9 mph - N/A   Unknown
1:30 AM 59.0 °F 46.4 °F 63% 30.18 in 6.2 mi SW 4.6 mph - N/A   Unknown
2:00 AM 59.0 °F 46.4 °F 63% 30.18 in 6.2 mi SW 5.8 mph - N/A   Unknown
2:30 AM 59.0 °F 46.4 °F 63% 30.18 in 6.2 mi SW 6.9 mph - N/A   Unknown
3:00 AM 57.2 °F 46.4 °F 67% 30.18 in 6.2 mi WSW 5.8 mph - N/A   Unknown
3:30 AM 57.2 °F 46.4 °F 67% 30.18 in 6.2 mi SW 5.8 mph - N/A   Unknown
4:00 AM 57.2 °F 46.4 °F 67% 30.18 in 6.2 mi SSW 5.8 mph - N/A   Overcast
4:30 AM 59.0 °F 46.4 °F 63% 30.18 in 6.2 mi SSW 5.8 mph - N/A   Mostly Cloudy
5:00 AM 59.0 °F 46.4 °F 63% 30.18 in 6.2 mi SSW 5.8 mph - N/A   Unknown
5:30 AM 59.0 °F 46.4 °F 63% 30.18 in 6.2 mi South 5.8 mph - N/A   Unknown
6:00 AM 57.2 °F 48.2 °F 72% 30.18 in 6.2 mi South 6.9 mph - N/A   Unknown
6:30 AM 57.2 °F 48.2 °F 72% 30.18 in 6.2 mi South 8.1 mph - N/A   Unknown
7:00 AM 55.4 °F 48.2 °F 77% 30.18 in 6.2 mi South 5.8 mph - N/A   Unknown
7:30 AM 55.4 °F 48.2 °F 77% 30.18 in 6.2 mi South 6.9 mph - N/A   Unknown
8:00 AM 57.2 °F 48.2 °F 72% 30.18 in 6.2 mi South 5.8 mph - N/A   Unknown
8:30 AM 57.2 °F 48.2 °F 72% 30.18 in 6.2 mi South 4.6 mph - N/A   Unknown
9:00 AM 59.0 °F 48.2 °F 67% 30.18 in 6.2 mi South 4.6 mph - N/A   Unknown
9:30 AM 60.8 °F 46.4 °F 59% 30.18 in 6.2 mi SSW 6.9 mph - N/A   Unknown
10:00 AM 62.6 °F 46.4 °F 55% 30.18 in 6.2 mi South 9.2 mph - N/A   Unknown
10:30 AM 64.4 °F 46.4 °F 52% 30.15 in 6.2 mi SW 12.7 mph - N/A   Unknown
11:00 AM 64.4 °F 48.2 °F 56% 30.15 in 6.2 mi South 10.4 mph - N/A   Unknown
11:30 AM 66.2 °F 46.4 °F 49% 30.15 in 6.2 mi South 11.5 mph - N/A   Unknown
12:00 PM 68.0 °F 48.2 °F 49% 30.12 in 6.2 mi SSW 9.2 mph - N/A   Unknown
12:30 PM 68.0 °F 46.4 °F 46% 30.12 in 6.2 mi South 10.4 mph - N/A   Unknown
1:00 PM 69.8 °F 44.6 °F 40% 30.12 in 6.2 mi South 10.4 mph - N/A   Unknown
1:30 PM 69.8 °F 44.6 °F 40% 30.09 in 6.2 mi South 10.4 mph - N/A   Unknown
2:00 PM 71.6 °F 41.0 °F 33% 30.09 in 6.2 mi South 9.2 mph - N/A   Unknown
2:30 PM 73.4 °F 41.0 °F 31% 30.06 in 6.2 mi South 11.5 mph - N/A   Unknown
3:00 PM 73.4 °F 44.6 °F 36% 30.06 in 6.2 mi South 15.0 mph - N/A   Unknown
3:30 PM 73.4 °F 44.6 °F 36% 30.06 in 6.2 mi South 11.5 mph - N/A   Unknown
4:00 PM 73.4 °F 46.4 °F 38% 30.04 in 6.2 mi South 11.5 mph - N/A   Unknown
4:30 PM 73.4 °F 44.6 °F 36% 30.01 in 6.2 mi South 11.5 mph - N/A   Unknown
5:00 PM 75.2 °F 42.8 °F 31% 30.01 in 6.2 mi South 10.4 mph - N/A   Unknown
5:30 PM 77.0 °F 42.8 °F 29% 29.98 in 6.2 mi South 10.4 mph - N/A   Unknown
6:00 PM 75.2 °F 44.6 °F 34% 29.98 in 6.2 mi South 11.5 mph - N/A   Unknown
6:30 PM 75.2 °F 46.4 °F 36% 29.98 in 6.2 mi South 11.5 mph - N/A   Unknown
7:00 PM 75.2 °F 46.4 °F 36% 29.95 in 6.2 mi South 10.4 mph - N/A   Unknown
7:30 PM 75.2 °F 48.2 °F 38% 29.95 in 6.2 mi South 11.5 mph - N/A   Unknown
8:00 PM 73.4 °F 50.0 °F 44% 29.95 in 6.2 mi South 8.1 mph - N/A   Unknown
8:30 PM 71.6 °F 50.0 °F 46% 29.95 in 6.2 mi South 8.1 mph - N/A   Unknown
9:00 PM 71.6 °F 50.0 °F 46% 29.95 in 6.2 mi SSW 8.1 mph - N/A   Unknown
9:30 PM 71.6 °F 48.2 °F 43% 29.95 in 6.2 mi SSW 8.1 mph - N/A   Unknown
10:00 PM 69.8 °F 48.2 °F 46% 29.95 in 6.2 mi SSW 6.9 mph - N/A   Unknown
10:30 PM 68.0 °F 50.0 °F 52% 29.95 in 6.2 mi SSW 6.9 mph - N/A   Unknown
11:00 PM 68.0 °F 50.0 °F 52% 29.92 in 6.2 mi SSW 6.9 mph - N/A   Unknown
11:30 PM 68.0 °F 50.0 °F 52% 29.92 in 6.2 mi SSW 6.9 mph - N/A   Unknown